Hourly Weather Kitowiny

Today, 23 October, Friday

Time Temperature Precipitation Wind Pressure Humidity
00:00 +11°C° 0 mm 3 mps 742 mmHg 80%
01:00 +10°C° 0 mm 3 mps 742 mmHg 85%
02:00 +10°C° 0 mm 3 mps 742 mmHg 85%
03:00 +10°C° 0 mm 3 mps 741 mmHg 85%
04:00 +9°C° 0 mm 3 mps 741 mmHg 86%
05:00 +10°C° 0 mm 3 mps 741 mmHg 84%
06:00 +10°C° 0 mm 3 mps 741 mmHg 82%
07:00 +11°C° 0 mm 4 mps 741 mmHg 80%
08:00 +11°C° 0 mm 3 mps 741 mmHg 77%
09:00 +12°C° 0 mm 3 mps 741 mmHg 75%
10:00 +13°C° 0 mm 3 mps 741 mmHg 73%
11:00 +14°C° 0 mm 3 mps 740 mmHg 70%
12:00 +16°C° 0 mm 3 mps 740 mmHg 68%
13:00 +17°C° 0 mm 3 mps 740 mmHg 65%
14:00 +12°C° 0 mm 3 mps 738 mmHg 86%
15:00 +13°C° 0 mm 3 mps 739 mmHg 81%
16:00 +14°C° 0 mm 2 mps 739 mmHg 77%
17:00 +14°C° 0 mm 2 mps 739 mmHg 78%
18:00 +13°C° 0 mm 2 mps 739 mmHg 80%
19:00 +13°C° 0 mm 2 mps 739 mmHg 81%
20:00 +13°C° 0 mm 2 mps 739 mmHg 81%
21:00 +13°C° 0 mm 2 mps 739 mmHg 81%
22:00 +13°C° 0 mm 2 mps 739 mmHg 81%
23:00 +13°C° 0 mm 2 mps 739 mmHg 81%

Tomorrow, 24 October, Saturday

Time Temperature Precipitation Wind Pressure Humidity
00:00 +13°C° 0 mm 2 mps 739 mmHg 82%
01:00 +13°C° 0 mm 2 mps 739 mmHg 82%
02:00 +12°C° 0 mm 2 mps 739 mmHg 84%
03:00 +12°C° 0 mm 2 mps 738 mmHg 85%
04:00 +11°C° 0 mm 3 mps 738 mmHg 87%
05:00 +11°C° 0.5 mm 3 mps 739 mmHg 89%
06:00 +11°C° 0.5 mm 3 mps 739 mmHg 91%
07:00 +11°C° 0.5 mm 3 mps 739 mmHg 93%
08:00 +12°C° 0.7 mm 3 mps 739 mmHg 92%
09:00 +12°C° 0.7 mm 4 mps 740 mmHg 91%
10:00 +13°C° 0.7 mm 4 mps 740 mmHg 89%
11:00 +14°C° 0 mm 4 mps 740 mmHg 83%
12:00 +14°C° 0 mm 3 mps 741 mmHg 76%
13:00 +16°C° 0 mm 3 mps 741 mmHg 70%
14:00 +16°C° 0 mm 3 mps 741 mmHg 73%
15:00 +15°C° 0 mm 2 mps 741 mmHg 75%
16:00 +14°C° 0 mm 2 mps 741 mmHg 78%
17:00 +14°C° 0 mm 2 mps 742 mmHg 82%
18:00 +13°C° 0 mm 2 mps 742 mmHg 86%
19:00 +12°C° 0 mm 2 mps 743 mmHg 90%
20:00 +12°C° 0 mm 2 mps 743 mmHg 90%
21:00 +10°C° 0 mm 2 mps 743 mmHg 91%
22:00 +10°C° 0 mm 2 mps 743 mmHg 92%
23:00 +10°C° 0 mm 2 mps 743 mmHg 92%

Day after tomorrow, 25 October, Sunday

Time Temperature Precipitation Wind Pressure Humidity
00:00 +10°C° 0 mm 2 mps 744 mmHg 92%
01:00 +9°C° 0 mm 2 mps 744 mmHg 93%
02:00 +10°C° 0 mm 1 mps 744 mmHg 93%
03:00 +10°C° 0 mm 1 mps 744 mmHg 93%
04:00 +10°C° 0 mm 1 mps 744 mmHg 92%
05:00 +10°C° 0 mm 1 mps 744 mmHg 92%
06:00 +10°C° 0 mm 1 mps 744 mmHg 92%
07:00 +10°C° 0 mm 1 mps 744 mmHg 92%
08:00 +11°C° 0 mm 1 mps 744 mmHg 85%
09:00 +13°C° 0 mm 1 mps 744 mmHg 78%
10:00 +15°C° 0 mm 1 mps 744 mmHg 72%
11:00 +15°C° 0 mm 2 mps 744 mmHg 69%
12:00 +16°C° 0 mm 2 mps 743 mmHg 66%
13:00 +17°C° 0 mm 2 mps 743 mmHg 63%
14:00 +16°C° 0 mm 2 mps 743 mmHg 68%
15:00 +15°C° 0 mm 2 mps 742 mmHg 74%
16:00 +14°C° 0 mm 2 mps 742 mmHg 79%
17:00 +13°C° 0 mm 2 mps 742 mmHg 82%
18:00 +12°C° 0 mm 2 mps 742 mmHg 86%
19:00 +10°C° 0 mm 3 mps 742 mmHg 89%
20:00 +10°C° 0 mm 3 mps 742 mmHg 90%
21:00 +10°C° 0 mm 3 mps 742 mmHg 90%
22:00 +10°C° 0 mm 3 mps 742 mmHg 91%
23:00 +9°C° 0 mm 3 mps 741 mmHg 91%

, 26 October, Monday

Time Temperature Precipitation Wind Pressure Humidity
00:00 +9°C° 0 mm 3 mps 741 mmHg 90%
01:00 +7°C° 0 mm 4 mps 740 mmHg 90%
02:00 +7°C° 0 mm 4 mps 740 mmHg 90%
03:00 +7°C° 0 mm 4 mps 740 mmHg 90%
04:00 +7°C° 0 mm 4 mps 739 mmHg 90%
05:00 +7°C° 0 mm 4 mps 739 mmHg 90%
06:00 +7°C° 0 mm 4 mps 739 mmHg 90%
07:00 +7°C° 0 mm 4 mps 739 mmHg 90%
08:00 +10°C° 0 mm 4 mps 738 mmHg 86%
09:00 +10°C° 0 mm 5 mps 738 mmHg 82%
10:00 +11°C° 0 mm 6 mps 738 mmHg 78%
11:00 +13°C° 0 mm 6 mps 738 mmHg 77%
12:00 +14°C° 0 mm 6 mps 737 mmHg 75%
13:00 +15°C° 0 mm 6 mps 737 mmHg 74%
14:00 +14°C° 0 mm 6 mps 737 mmHg 75%
15:00 +14°C° 0 mm 5 mps 736 mmHg 77%
16:00 +13°C° 0 mm 5 mps 736 mmHg 78%
17:00 +13°C° 0 mm 5 mps 736 mmHg 80%
18:00 +12°C° 0 mm 5 mps 736 mmHg 82%
19:00 +12°C° 0 mm 5 mps 736 mmHg 83%
20:00 +12°C° 0 mm 5 mps 736 mmHg 84%
21:00 +12°C° 0 mm 5 mps 736 mmHg 84%
22:00 +10°C° 0 mm 5 mps 736 mmHg 85%
23:00 +10°C° 0 mm 5 mps 736 mmHg 86%

26 October, Monday

Time Temperature Precipitation Wind Pressure Humidity
00:00 +9°C° 0 mm 3 mps 741 mmHg 90%
01:00 +7°C° 0 mm 4 mps 740 mmHg 90%
02:00 +7°C° 0 mm 4 mps 740 mmHg 90%
03:00 +7°C° 0 mm 4 mps 740 mmHg 90%
04:00 +7°C° 0 mm 4 mps 739 mmHg 90%
05:00 +7°C° 0 mm 4 mps 739 mmHg 90%
06:00 +7°C° 0 mm 4 mps 739 mmHg 90%
07:00 +7°C° 0 mm 4 mps 739 mmHg 90%
08:00 +10°C° 0 mm 4 mps 738 mmHg 86%
09:00 +10°C° 0 mm 5 mps 738 mmHg 82%
10:00 +11°C° 0 mm 6 mps 738 mmHg 78%
11:00 +13°C° 0 mm 6 mps 738 mmHg 77%
12:00 +14°C° 0 mm 6 mps 737 mmHg 75%
13:00 +15°C° 0 mm 6 mps 737 mmHg 74%
14:00 +14°C° 0 mm 6 mps 737 mmHg 75%
15:00 +14°C° 0 mm 5 mps 736 mmHg 77%
16:00 +13°C° 0 mm 5 mps 736 mmHg 78%
17:00 +13°C° 0 mm 5 mps 736 mmHg 80%
18:00 +12°C° 0 mm 5 mps 736 mmHg 82%
19:00 +12°C° 0 mm 5 mps 736 mmHg 83%
20:00 +12°C° 0 mm 5 mps 736 mmHg 84%
21:00 +12°C° 0 mm 5 mps 736 mmHg 84%
22:00 +10°C° 0 mm 5 mps 736 mmHg 85%
23:00 +10°C° 0 mm 5 mps 736 mmHg 86%

27 October, Tuesday

Time Temperature Precipitation Wind Pressure Humidity
00:00 +11°C° 0 mm 4 mps 736 mmHg 88%
01:00 +11°C° 0 mm 4 mps 736 mmHg 89%
02:00 +11°C° 0 mm 4 mps 736 mmHg 90%
03:00 +10°C° 0 mm 5 mps 736 mmHg 90%
04:00 +10°C° 0 mm 5 mps 736 mmHg 90%
05:00 +11°C° 0 mm 4 mps 736 mmHg 91%
06:00 +10°C° 0 mm 4 mps 737 mmHg 91%
07:00 +10°C° 0 mm 4 mps 737 mmHg 91%
08:00 +12°C° 0 mm 4 mps 737 mmHg 86%
09:00 +13°C° 0 mm 5 mps 737 mmHg 81%
10:00 +14°C° 0 mm 5 mps 738 mmHg 75%
11:00 +15°C° 0 mm 5 mps 738 mmHg 71%
12:00 +16°C° 0 mm 5 mps 738 mmHg 67%
13:00 +17°C° 0 mm 5 mps 738 mmHg 63%
14:00 +17°C° 0 mm 4 mps 738 mmHg 67%
15:00 +15°C° 0 mm 4 mps 738 mmHg 70%
16:00 +16°C° 0 mm 3 mps 738 mmHg 74%
17:00 +14°C° 0 mm 3 mps 738 mmHg 77%
18:00 +13°C° 0 mm 3 mps 739 mmHg 80%
19:00 +12°C° 0 mm 3 mps 739 mmHg 83%
20:00 +12°C° 0 mm 3 mps 739 mmHg 85%
21:00 +11°C° 0 mm 3 mps 739 mmHg 86%
22:00 +12°C° 0 mm 2 mps 739 mmHg 88%
23:00 +12°C° 0 mm 2 mps 739 mmHg 88%

28 October, Wednesday

Time Temperature Precipitation Wind Pressure Humidity
00:00 +10°C° 0 mm 2 mps 739 mmHg 89%
01:00 +10°C° 0 mm 2 mps 739 mmHg 90%
02:00 +10°C° 0 mm 2 mps 739 mmHg 90%
03:00 +11°C° 0 mm 1 mps 739 mmHg 90%
04:00 +10°C° 0 mm 1 mps 739 mmHg 90%
05:00 +10°C° 0 mm 1 mps 740 mmHg 91%
06:00 +10°C° 0 mm 1 mps 740 mmHg 92%
07:00 +10°C° 0 mm 1 mps 740 mmHg 92%
08:00 +12°C° 0 mm 1 mps 740 mmHg 87%
09:00 +13°C° 0 mm 2 mps 741 mmHg 82%
10:00 +14°C° 0 mm 2 mps 741 mmHg 76%
11:00 +15°C° 0 mm 2 mps 741 mmHg 74%
12:00 +16°C° 0 mm 2 mps 741 mmHg 72%
13:00 +16°C° 0 mm 3 mps 741 mmHg 69%
14:00 +15°C° 0 mm 2 mps 741 mmHg 73%
15:00 +14°C° 0 mm 2 mps 741 mmHg 77%
16:00 +13°C° 0 mm 2 mps 741 mmHg 81%
17:00 +13°C° 0 mm 2 mps 742 mmHg 81%
18:00 +12°C° 0 mm 2 mps 742 mmHg 81%
19:00 +10°C° 0 mm 2 mps 743 mmHg 81%
20:00 +10°C° 0 mm 2 mps 743 mmHg 81%
21:00 +10°C° 0 mm 2 mps 743 mmHg 81%
22:00 +10°C° 0 mm 2 mps 743 mmHg 81%
23:00 +9°C° 0 mm 2 mps 743 mmHg 84%
Show more